METAR Formatted Surface Weather Observation
Issued by NWS Tiyan, Guam

Home | Current Version | Previous Version | Text Only | Print | Product List | Glossary On
Versions: 1 2 3 4 5 6 7 8 9 10 11 12 13 14 15 16 17 18 19 20 21 22 23 24 25 26 27 28 29 30 31 32 33 34 35 36 37 38 39 40 41 42 43 44 45 46 47 48 49 50
000
SAGM31 PGUM 291155
MTRGUM
METAR PGUM 291154Z 08004KT 10SM FEW018 SCT040 28/25 A2983 RMK AO2
RAB03E14 SLP092 LTG DSNT NW P0001 60001 70007 T02780250 10300 20278
50016


USA.gov is the U.S. government's official web portal to all federal, state and local government web resources and services.